Location: B�rgermoos
(47.6500°N, 9.0667°E)
Time: 01:52:03
(UTC+00:00)

Tiros 1 - Pass Details

Date: 11 August 2021
Orbit: 630 x 663 km, 48.4° (Epoch: 16 September)

Event Time Altitude Azimuth Distance (km) Brightness Sun altitude
Rises 13:52:03 0° 230° (SW) 2,986 11.3 46.1°
Reaches altitude 10° 13:54:28 10° 225° (SW) 2,076 10.8 45.7°
Maximum altitude 13:59:03 47° 152° (SSE) 877 8.4 45.1°
Drops below altitude 10° 14:03:39 10° 79° (E) 2,077 9.5 44.4°
Sets 14:06:04 0° 74° (ENE) 2,988 10.1 44.1°
